Préparation du vol

Réserver un ULM chez EFU                     Découvrir nos appareils                     Coordonnées de l'école

Available data for LFPN from the past hour

METAR
LFPN 242300Z AUTO 32007KT CAVOK 14/10 Q1018
LFPN 242230Z AUTO 33006KT CAVOK 15/10 Q1018
TAF
TAF LFPN 241700Z 2418/2503 32005KT CAVOK TEMPO 2418/2421 6000 -SHRA SCT050CB SCT060 PROB30 TEMPO 2418/2419 3000 -TSRA SCT045CB BKN050

Pour avoir des informations détaillée sur la météo à venir vous pouvez consulter Aeroweb

prevision des pluies

Nota : Heuro locale = heure CET

[table “3” not found /]

OLIVIA

Outil en Ligne Intégré de Visualisation d'Informations Aéronautiques

OLIVIA